sat.trackr.live / text

‹ back to catalog

STARLINK-34477

NORAD 64487 · 2025-133R

PAYLOAD ACTIVE UNKNOWN

§ Identity

Operator
Country
US
Launch date
2025-06-23
Launch site
AFETR
Launch vehicle
Mass (kg)
RCS (m²)

Purposes: comms

External: N2YO · Heavens-Above · Gunter

§ Orbital elements

Epoch: 2026-09-20T05:35:31.863552Z

Period
93.85 min
Inclination
53.1580°
Eccentricity
0.0001134
Mean motion
15.34410797 rev/d
Perigee alt
461.9 km
Apogee alt
463.4 km
Semi-major
6,840.8 km
B*
5.4183e-4
RAAN
291.0541°
Arg perigee
89.5354°
Mean anomaly
270.5778°
Rev number
7,099

§ Raw data

STARLINK-344771 64487U 25133R   26263.23300768  .00017980  00000+0  54183-3 0  99992 64487  53.1580 291.0541 0001134  89.5354 270.5778 15.34410797 70990

JSON: /api/v1/satellites/64487 · /tle

For live sub-satellite position, see the globe view (requires WebGL).

§ Visibility from observer

Set your observer location to see the next 7 days of passes ≥ 10°. The values pass through the URL so the page stays shareable.

No JS? Fill the form by hand. The geolocation button needs JavaScript.